Regional Weather Roundup
Issued by NWS

Home | Current Version | Previous Version | Graphics & Text | Print | Product List | Glossary On
Versions: 1 2 3 4 5 6 7 8 9 10 11 12 13 14 15 16 17 18 19 20 21 22 23 24 25 26 27 28 29 30 31 32 33 34 35 36 37 38 39 40 41 42 43 44 45 46 47 48 49 50
000
ASUS43 KDTX 311801
RWRMI
MICHIGAN HOURLY REGIONAL WEATHER ROUNDUP
NATIONAL WEATHER SERVICE DETROIT/PONTIAC MI
200 PM EDT WED AUG 31 2016

NOTE: "FAIR" INDICATES FEW OR NO CLOUDS BELOW 12,000 FEET WITH NO
SIGNIFICANT WEATHER AND/OR OBSTRUCTION TO VISIBILITY.

MIZ047>049-052>055-059>063-066>070-074>076-081>083-311900-
SOUTHEAST LOWER MICHIGAN

CITY           SKY/WX    TMP DP  RH WIND       PRES   REMARKS
ADRIAN         CLOUDY    74  69  85 W5        30.00F
6HR MIN TEMP:  68; 6HR MAX TEMP:  76;

ALMA           MOSUNNY   75  59  57 N7        30.05S
ANN ARBOR      CLOUDY    79  68  69 NW12      29.98F
BAD AXE        PTSUNNY   71  61  70 N13G20    30.03S
CARO           MOSUNNY   73  62  69 N7        30.03S
DETROIT CITY   MOSUNNY   80  67  64 N10       29.98S
6HR MIN TEMP:  71; 6HR MAX TEMP:  80;

DETROIT        LGT RAIN  77  68  73 N15       29.97F
6HR MIN TEMP:  71; 6HR MAX TEMP:  82; 6HR PCP: TRACE;

FLINT          CLOUDY    74  57  55 N13G18    30.03R
6HR MIN TEMP:  69; 6HR MAX TEMP:  76;

GROSSE ILE     CLOUDY    79  69  71 NE8       29.95F
6HR MIN TEMP:  70; 6HR MAX TEMP:  80;

HILLSDALE      MOSUNNY   78  67  70 N9        30.01F
6HR MIN TEMP:  51; 6HR MAX TEMP:  84;

HOWELL         CLOUDY    73  63  71 NW9       30.03S

CITY           SKY/WX    TMP DP  RH WIND       PRES   REMARKS
JACKSON          N/A     74  68  81 N10       30.02S
6HR MIN TEMP:  69; 6HR MAX TEMP:  77;

LAMBERTVILLE   MOSUNNY   81  69  67 N5        29.98F
6HR MIN TEMP:  71; 6HR MAX TEMP:  81;

LANSING        CLOUDY    74  56  53 N8        30.04S
6HR MIN TEMP:  68; 6HR MAX TEMP:  74;

LAPEER         CLOUDY    73  58  59 N7        30.03R
6HR MIN TEMP:  68; 6HR MAX TEMP:  74;

MASON          CLOUDY    71  62  74 NW9       30.03S
MONROE         CLOUDY    82  72  71 W7        29.95F
6HR MIN TEMP:  70; 6HR MAX TEMP:  83;

MT. CLEMENS    PTSUNNY   77  66  69 N8        29.97S
6HR MIN TEMP:  71; 6HR MAX TEMP:  77;

PONTIAC        PTSUNNY   74  64  71 NW10      30.00F
6HR MIN TEMP:  69; 6HR MAX TEMP:  75; 6HR PCP: TRACE;

PORT HOPE        N/A     72  61  68 N10G17    30.02R
6HR MIN TEMP:  67; 6HR MAX TEMP:  73;

PORT HURON     CLOUDY    73  64  73 NE8       30.00R
TRI CITIES     MOSUNNY   76  59  55 NE8       30.04S
6HR MIN TEMP:  66; 6HR MAX TEMP:  76;

MIDLAND        PTSUNNY   74  57  55 NW8       30.03S
6HR MIN TEMP:  64; 6HR MAX TEMP:  75;

TROY           CLOUDY    78  65  64 N7        30.00F
SAGINAW HB     MOSUNNY   73  59  60 N12G17    30.04R
$$
MIZ043>046-050>051-056>058-064>065-071>073-077>080-311900-
SOUTHWEST LOWER MICHIGAN

CITY           SKY/WX    TMP DP  RH WIND       PRES   REMARKS
BATTLE CREEK   PTSUNNY   73  67  81 N8        30.03F
6HR MIN TEMP:  69; 6HR MAX TEMP:  74;

BENTON HARBOR  MOSUNNY   75  62  64 N8G20     30.03S
6HR MIN TEMP:  70; 6HR MAX TEMP:  79;

BIG RAPIDS     PTSUNNY   73  53  49 N10       30.07R
6HR MIN TEMP:  63; 6HR MAX TEMP:  74;

COLDWATER      PTSUNNY   78  69  75 N8        30.00F
6HR MIN TEMP:  69; 6HR MAX TEMP:  80;

FREMONT        FAIR      75  49  40 N10G18    30.06S
HOLLAND        SUNNY     77  58  51 VRB5      30.05S
6HR MIN TEMP:  70; 6HR MAX TEMP:  77;

GRAND RAPIDS   MOSUNNY   76  57  51 NW8G17    30.04F
6HR MIN TEMP:  68; 6HR MAX TEMP:  77;

IONIA          FAIR      73  56  56 N6        30.04S
6HR MIN TEMP:  66; 6HR MAX TEMP:  73;

KALAMAZOO      PTSUNNY   77  66  68 N10       30.01F
6HR MIN TEMP:  72; 6HR MAX TEMP:  80;

LUDINGTON      MOSUNNY   73  59  61 N14G21    30.07F
6HR MIN TEMP:  58; 6HR MAX TEMP:  74;

MARSHALL       CLOUDY    74  68  80 CALM      30.02F
6HR MIN TEMP:  71; 6HR MAX TEMP:  76;

MOUNT PLEASANT MOSUNNY   76  57  51 N12       30.04R
6HR MIN TEMP:  64; 6HR MAX TEMP:  77;

MUSKEGON       MOSUNNY   78  55  44 NW13      30.06S
6HR MIN TEMP:  68; 6HR MAX TEMP:  78;

SOUTH HAVEN    MOSUNNY   76  65  66 N12G17    30.03S
$$
MIZ016>042-311900-
NORTHERN LOWER MICHIGAN

CITY           SKY/WX    TMP DP  RH WIND       PRES   REMARKS
ALPENA         MOSUNNY   74  49  41 N16G24    30.05S
6HR MIN TEMP:  57; 6HR MAX TEMP:  76;

BEAVER ISLAND  CLOUDY    70  56  61 NW8       30.09S
6HR MIN TEMP:  63; 6HR MAX TEMP:  72;

BELLAIRE       PTSUNNY   73  50  44 N12G18    30.07F
6HR MIN TEMP:  54; 6HR MAX TEMP:  74;

CADILLAC       PTSUNNY   72  52  50 N10G21    30.08S
CHARLEVOIX     SUNNY     72  58  60 N9        30.11F
6HR MIN TEMP:  66; 6HR MAX TEMP:  72;

FRANKFORT      MOSUNNY   73  56  56 N8        30.09S
GAYLORD        PTSUNNY   70  50  49 NW9G17    30.08S
6HR MIN TEMP:  59; 6HR MAX TEMP:  73;

GRAYLING       PTSUNNY   72  50  46 N12G17    30.08S
6HR MIN TEMP:  55; 6HR MAX TEMP:  75;

HARBOR SPRINGS PTSUNNY   73  53  49 NW8G17    30.07S
HOUGHTON LAKE  MOSUNNY   73  50  44 N8        30.07S
6HR MIN TEMP:  60; 6HR MAX TEMP:  74;

MANISTEE       PTSUNNY   72  59  63 N8G17     30.08S
OSCODA         MOSUNNY   74  55  52 N10G16    30.03S
6HR MIN TEMP:  59; 6HR MAX TEMP:  74;

PELLSTON       CLOUDY    71  54  54 NW12      30.07S
6HR MIN TEMP:  58; 6HR MAX TEMP:  75;

ROGERS CITY    SUNNY     72  56  58 N9        30.06F
TRAVERSE CITY  MOSUNNY   75  54  47 N10G20    30.07S
6HR MIN TEMP:  66; 6HR MAX TEMP:  75;

$$
MIZ007>008-015-311900-
EASTERN UPPER MICHIGAN

CITY           SKY/WX    TMP DP  RH WIND       PRES   REMARKS
KINROSS        SUNNY     70  54  56 N20       30.06S
6HR MIN TEMP:  60; 6HR MAX TEMP:  70;

MACKINAC ISLAN CLOUDY    71  56  60 NW9       30.06S
6HR MIN TEMP:  59; 6HR MAX TEMP:  72;

NEWBERRY       CLOUDY    69  55  60 NW10G16   30.09S
6HR MIN TEMP:  58; 6HR MAX TEMP:  69;

S. S. MARIE    MOSUNNY   71  56  58 W12G23    30.05S
6HR MIN TEMP:  59; 6HR MAX TEMP:  72;

MUNISING         N/A     68  57  68 N13       30.12S
6HR MIN TEMP:  54; 6HR MAX TEMP:  70;

$$
MIZ004>006-011>014-085-311900-
CENTRAL UPPER MICHIGAN

CITY           SKY/WX    TMP DP  RH WIND       PRES   REMARKS
MANISTIQUE     CLOUDY    71  55  58 NW10      30.09F
6HR MIN TEMP:  57; 6HR MAX TEMP:  72;

ESCANABA       CLOUDY    71  57  61 NW10      30.11S
6HR MIN TEMP:  52; 6HR MAX TEMP:  72;

MENOMINEE      MOSUNNY  N/A N/A N/A N9        30.11
SAWYER-GWINN   CLOUDY    63  57  82 NE9       30.16R
$$
MIZ001>003-009>011-084-311900-
WESTERN UPPER MICHIGAN

CITY           SKY/WX    TMP DP  RH WIND       PRES   REMARKS
IRON MOUNTAIN  CLOUDY    72  51  47 N15       30.13F
6HR MIN TEMP:  50; 6HR MAX TEMP:  73;

HOUGHTON       CLOUDY    68  54  60 NW9       30.16S
6HR MIN TEMP:  57; 6HR MAX TEMP:  68;

COPPER HARBOR    N/A     66  59  78 N9        30.14S
6HR MIN TEMP:  65; 6HR MAX TEMP:  66;

IRONWOOD       CLOUDY    67  56  67 N10       30.20F
6HR MIN TEMP:  47; 6HR MAX TEMP:  68;

$$

ABBREVIATIONS USED IN REMARKS
   TC - TEMPERATURE IN CELSIUS
  WCI - WIND CHILL INDEX
   HX - HEAT INDEX
  VSB - VISIBILITY





USA.gov is the U.S. government's official web portal to all federal, state and local government web resources and services.